Location: Plainartige
(45.6866°N, 1.7993°E)
Time: 10:17:00
(UTC+00:00)

Gurwin Techsat 1B - Visible Passes

Search period start: 30 June 2022 00:00
Search period end: 10 July 2022 00:00
Orbit: 811 x 814 km, 98.8° (Epoch: 29 June)

Date Brightness Start Highest point End Pass type
(mag) Time Alt. Az. Time Alt. Az. Time Alt. Az.
30 Jun 8.8 02:25:20 10° NNE 02:30:40 72° ESE 02:35:32 12° S visible
01 Jul 9.4 02:02:32 10° NNE 02:07:40 45° E 02:12:17 12° S visible
02 Jul 10.1 01:39:57 10° NE 01:44:34 29° E 01:49:02 10° SSE visible
02 Jul 9.3 03:19:37 10° N 03:24:35 41° WNW 03:29:32 10° SW visible
03 Jul 10.7 01:17:42 10° NE 01:21:23 19° E 01:25:03 10° SE visible
03 Jul 8.8 02:56:29 10° N 03:01:45 64° WNW 03:06:58 10° SSW visible
04 Jul 11.1 00:56:26 10° ENE 00:58:08 11° E 00:59:49 10° ESE visible
04 Jul 8.7 02:33:29 10° NNE 02:38:50 83° ESE 02:43:43 12° SSW visible
05 Jul 9.2 02:10:38 10° NNE 02:15:51 53° E 02:20:27 13° S visible
06 Jul 9.9 01:47:59 10° NNE 01:52:47 34° E 01:57:11 12° SSE visible
06 Jul 9.5 03:27:52 10° N 03:32:42 36° WNW 03:37:29 10° SW visible
07 Jul 10.5 01:25:35 10° NE 01:29:38 22° E 01:33:41 10° SE visible
07 Jul 8.9 03:04:42 10° N 03:09:53 55° WNW 03:15:03 10° SW visible
08 Jul 11.0 01:03:47 10° ENE 01:06:25 14° E 01:09:02 10° ESE visible
08 Jul 8.6 02:41:39 10° NNE 02:47:00 85° WNW 02:51:52 13° SSW visible
09 Jul 9.0 02:18:45 10° NNE 02:24:03 62° ESE 02:28:36 14° S visible
